This demonstration page uses our WeatherBlox Daily Observations layout. Learn more.

Left ArrowRight Arrow

Hourly Observations for May 21, 2015

Temp ( °F °C ) Dew Point ( °F °C ) Humidity (%) Winds ( mph kmh ) Pressure ( in mb ) Visibility ( mi km ) Precip ( " mm )
12:53 am 00:53 Clear 40 4.4 38 3.3 93 93 WNW 3 6 30.32 1027 10 16 0.00 0.00
1:53 am 01:53 Clear 39 3.9 37 2.8 93 93 WNW 5 7 30.32 1027 10 16 0.00 0.00
2:53 am 02:53 Clear 39 3.9 37 2.8 93 93 W 6 9 30.31 1026 9 14 0.00 0.00
3:53 am 03:53 Clear 40 4.4 37 2.8 89 89 W 6 9 30.32 1027 10 16 0.00 0.00
4:53 am 04:53 Clear 39 3.9 37 2.8 93 93 WSW 7 11 30.33 1027 10 16 0.00 0.00
5:53 am 05:53 Clear 37 2.8 35 1.7 93 93 WNW 7 11 30.32 1027 9 14 0.00 0.00
6:53 am 06:53 Sunny 38 3.3 36 2.2 93 93 WNW 6 9 30.33 1027 9 14 0.00 0.00
7:53 am 07:53 Sunny 44 6.7 39 3.9 83 83 NW 8 13 30.33 1027 10 16 0.00 0.00
8:53 am 08:53 Sunny 50 10 41 5 71 71 NNW 9 15 30.32 1027 10 16 0.00 0.00
9:53 am 09:53 Sunny 54 12.2 40 4.4 59 59 NNW 10 17 30.31 1026 10 16 0.00 0.00
10:13 am 10:13 Hazy 55 12.8 40 4.4 57 57 NW 9 15 30.27 1025 2 3 0.00 0.00
10:23 am 10:23 Sunny 55 12.8 40 4.4 57 57 NW 10 17 30.27 1025 10 16 0.00 0.00
10:53 am 10:53 Sunny 56 13.3 39 3.9 53 53 NNW 8 13 30.30 1026 10 16 0.00 0.00
11:53 am 11:53 Sunny 58 14.4 36 2.2 44 44 NW 6 9 30.31 1026 10 16 0.00 0.00
12:53 pm 12:53 Sunny 59 15 36 2.2 42 42 VRB 3 6 30.30 1026 10 16 0.00 0.00
1:53 pm 13:53 Sunny 61 16.1 34 1.1 36 36 VRB 5 7 30.29 1026 10 16 0.00 0.00
2:53 pm 14:53 Sunny 63 17.2 38 3.3 40 40 NW 5 7 30.27 1025 10 16 0.00 0.00
3:53 pm 15:53 Sunny 64 17.8 36 2.2 35 35 VRB 5 7 30.24 1024 10 16 0.00 0.00
4:53 pm 16:53 Sunny 64 17.8 36 2.2 35 35 VRB 5 7 30.23 1024 10 16 0.00 0.00
5:53 pm 17:53 Sunny 65 18.3 34 1.1 32 32 SSW 5 7 30.22 1023 10 16 0.00 0.00
6:53 pm 18:53 Sunny 64 17.8 34 1.1 33 33 SSE 6 9 30.19 1023 10 16 0.00 0.00
7:53 pm 19:53 Sunny 62 16.7 35 1.7 37 37 S 5 7 30.18 1022 10 16 0.00 0.00
8:53 pm 20:53 Clear 60 15.6 36 2.2 41 41 S 3 6 30.18 1022 10 16 0.00 0.00
9:53 pm 21:53 Clear 57 13.9 38 3.3 49 49 S 3 6 30.20 1023 10 16 0.00 0.00
10:53 pm 22:53 Clear 54 12.2 39 3.9 57 57 S 5 7 30.22 1023 10 16 0.00 0.00
11:53 pm 23:53 Clear 53 11.7 40 4.4 61 61 SSW 5 7 30.22 1023 10 16 0.00 0.00

Powered by AerisWeather